CAPE
24 387 1463 1303 1122 1307 1691 1773 1843 2031 2203 2068 1966 1995 2049 1963 1808 1659 1605 1300 1585 1257 1195 983 779 532 365 147 70 26 15 7 10 19 28 13 29 21 22 20 22 10 40
188 640 1463 1455 1226 1158 1606 1803 1599 1791 1970 2158 2125 2037 1923 1701 1610 1708 1505 1378 1410 1165 1137 830 563 293 85 51 13 13 9 7 16 25 17 13 12 35 25 39 52 31 47
525 764 1095 1736 1662 1410 1653 1711 1727 1696 1503 1761 1894 1853 1880 1768 1627 1462 1446 1232 1276 1263 1081 740 311 106 63 20 7 7 3 2 4 15 15 0 7 21 19 40 52 23 21
635 798 1016 1818 1594 1743 1701 1752 1590 1205 1330 1379 1536 1655 1480 1624 1540 1392 1227 1246 1178 1135 965 558 345 118 31 10 9 3 0 0 0 0 0 2 6 34 25 20 20 14 17
612 666 1132 1720 1639 1599 1534 1107 1140 1601 1867 1625 1245 1286 1282 1479 1352 1238 1054 1053 1099 1196 1032 471 189 43 5 4 3 1 0 0 0 0 0 1 2 17 15 11 15 12 14
502 617 1362 1754 1767 1628 1504 1369 1240 1395 1350 1682 1305 1257 1191 1275 1119 1073 905 1044 743 885 906 204 84 37 10 4 2 1 0 0 0 0 0 11 4 27 32 23 7 12 13
517 787 1153 1120 1448 1389 980 1019 1219 1110 1024 1042 1082 1138 1071 1097 953 873 617 916 645 881 839 212 89 19 9 2 3 0 0 0 0 0 0 0 1 19 23 17 15 11 12
515 535 682 780 1211 1141 1149 1395 999 1328 796 822 1224 1224 1061 792 673 561 486 800 633 827 530 174 30 7 0 0 1 0 0 0 0 0 0 2 18 17 18 16 18 16 21
347 326 337 524 903 953 863 1087 1096 1104 1188 1301 1193 1171 1043 977 772 378 556 585 250 275 407 253 34 6 0 0 0 0 0 0 0 0 0 0 12 26 26 15 18 21 19
224 165 209 268 312 279 425 576 841 854 931 960 682 514 517 656 717 710 352 317 320 81 191 347 58 14 9 6 0 0 0 0 0 0 0 1 20 34 21 21 18 13 7
81 73 93 116 144 209 196 198 287 296 238 176 117 102 81 87 105 121 203 274 222 115 23 298 44 1 12 6 0 0 0 0 0 0 4 40 21 20 14 18 9 6 7
59 24 21 23 32 56 44 5 4 9 6 4 3 9 4 25 58 54 93 109 171 105 75 248 31 0 0 0 0 0 0 0 0 0 0 42 10 13 16 7 6 6 4
3 33 0 0 0 1 0 0 0 0 0 0 0 0 0 0 0 0 0 0 0 0 0 0 0 0 0 0 0 0 0 0 0 0 19 37 16 13 10 7 5 3 4
0 0 0 0 0 0 0 0 0 0 0 0 0 0 0 0 0 0 0 0 0 0 0 0 0 0 0 0 0 0 0 0 0 0 1 12 16 9 8 6 4 3 2
0 0 0 0 0 0 0 0 0 0 0 0 0 0 0 0 0 0 0 0 0 0 0 0 0 0 0 0 0 0 0 0 0 0 0 1 12 7 5 4 4 3 2
0 0 0 0 0 0 0 0 0 0 0 0 0 0 0 0 0 0 0 0 0 0 0 0 0 0 0 0 0 0 0 0 0 0 0 0 0 4 1 1 1 1 2
0 0 0 0 0 0 0 0 0 0 0 0 0 0 0 0 0 0 0 0 0 0 0 0 0 0 0 0 0 0 0 0 0 0 0 0 0 0 0 0 0 0 0
0 0 0 0 0 0 0 0 0 0 0 0 0 0 0 0 0 0 0 0 0 0 0 0 0 0 0 0 0 0 0 0 0 0 0 0 0 0 0 0 0 0 0
0 0 0 0 0 0 0 0 0 0 0 0 0 0 0 0 0 0 0 0 0 0 0 0 0 0 0 0 0 0 0 0 0 0 0 0 0 0 0 0 0 0 0
0 0 0 0 0 0 0 0 0 0 0 0 0 0 0 0 0 0 0 0 0 0 0 0 0 0 0 0 0 0 0 0 0 0 0 0 0 0 0 0 0 0 0
0 0 0 0 0 0 0 0 0 0 0 0 0 0 0 0 0 0 0 0 0 0 0 0 0 0 0 0 0 0 0 0 0 0 0 0 0 0 0 0 0 0 0
1 2 2 0 0 10 1 0 0 0 0 0 0 0 0 0 0 0 0 0 0 0 0 0 0 0 0 0 0 0 0 0 0 0 0 0 0 0 0 0 0 0 0
72 31 19 4 0 13 13 1 0 0 0 0 0 0 0 0 0 0 0 0 0 0 0 0 0 0 0 0 0 0 0 0 0 0 0 0 0 0 0 0 0 0 0
165 93 28 2 4 0 5 0 0 0 0 0 0 0 0 0 0 0 0 0 0 0 0 0 0 0 0 0 0 0 0 0 0 0 0 0 0 0 0 0 0 0 0
134 44 19 3 2 0 4 1 0 0 0 0 0 0 0 0 0 0 0 0 0 0 0 0 0 0 0 0 0 0 0 0 0 0 0 0 0 0 0 0 0 0 0
192 108 44 49 33 20 17 19 4 2 0 0 0 0 0 0 0 0 0 0 0 0 0 0 0 0 0 0 0 0 0 0 0 0 0 0 0 0 0 0 0 0 0
CIN
-160 -38 0 0 -1 0 0 0 0 0 0 0 0 0 0 0 0 0 0 0 0 0 0 0 0 0 0 -1 -14 -7 0 0 0 0 0 0 0 0 0 0 -2 -4 0
-137 -12 0 0 -1 -4 -3 -1 -4 -3 -2 -1 0 0 0 0 0 0 0 0 0 0 0 0 0 0 -10 -27 -4 0 0 0 -1 -1 -3 -2 0 0 0 0 0 -3 -1
-28 -5 -1 0 0 -3 -2 -1 -3 -4 -13 -6 -6 0 0 0 0 0 0 0 0 0 0 0 0 -17 -36 -80 0 0 0 -2 -5 -4 -10 0 -3 -1 0 -1 0 -1 0
-23 -5 -3 0 -1 0 -1 -1 -3 -9 -8 -11 -13 -2 -2 0 -1 0 0 0 0 0 0 0 0 -22 -66 0 0 0 0 0 0 0 0 -7 -1 0 0 0 0 0 0
-17 -21 -2 0 0 -2 -3 -9 -12 -4 -2 -2 -8 -5 -6 0 0 0 0 0 0 0 0 0 -11 -53 -91 0 0 0 0 0 0 0 0 -4 -2 -1 0 0 -1 -1 0
-31 -26 -1 0 0 -1 -2 -6 -10 -10 -20 -11 -3 -4 -3 -3 0 0 0 0 0 0 0 -1 -28 -81 -176 -87 0 0 0 0 0 0 0 -7 -2 -1 0 0 0 -1 0
-28 -12 -2 -6 -4 -3 -8 -8 -9 -13 -8 -11 -20 -5 -3 0 0 0 0 0 0 0 0 -1 -34 -117 -230 0 0 0 0 0 0 0 0 0 -1 0 0 -1 0 0 -1
-24 -25 -12 -24 -7 -8 -8 -3 -13 -2 -12 -12 -23 -6 0 0 0 0 0 0 0 0 0 -7 -106 -213 0 0 0 0 0 0 0 0 0 -4 -1 0 0 0 -1 0 0
-44 -55 -52 -34 -12 -15 -13 -7 -8 -2 0 0 0 -1 -1 0 0 0 0 0 0 0 -1 -4 -96 -226 0 0 0 0 0 0 0 0 0 -2 0 0 0 0 0 0 0
-53 -83 -76 -72 -62 -49 -14 -9 -6 -4 -4 -4 -13 -27 -13 -4 -1 0 -3 -3 0 -30 -1 -2 -130 -274 -385 -430 0 0 0 0 0 0 -12 -2 0 -1 0 0 0 0 0
-89 -102 -116 -105 -90 -72 -66 -64 -60 -46 -70 -81 -118 -126 -133 -142 -112 -102 -68 -37 -44 -81 -209 -46 -189 -83 -353 -414 0 0 0 0 0 0 -7 -2 -1 0 0 0 0 0 0
-61 -106 -155 -150 -165 -151 -141 -80 -90 -245 -133 -225 -131 -328 -128 -272 -184 -200 -159 -182 -122 -170 -209 -78 -297 -182 0 0 0 0 0 0 0 0 -1 -1 -1 0 0 0 0 0 0
-13 -90 -24 0 0 -35 0 0 0 0 0 0 0 0 0 0 0 0 0 0 0 0 0 -35 0 0 0 0 0 0 0 0 0 0 -9 -1 0 0 0 0 0 0 0
0 0 0 0 0 0 0 0 0 0 0 0 0 0 0 0 0 0 0 0 0 0 0 0 0 0 0 0 0 0 0 0 0 0 -18 -4 0 0 0 0 0 0 0
0 0 0 0 0 0 0 0 0 0 0 0 0 0 0 0 0 0 0 0 0 0 0 0 0 0 0 0 0 0 0 0 0 0 0 -9 -1 0 0 0 0 0 0
0 0 0 0 0 0 0 0 0 0 0 0 0 0 0 0 0 0 0 0 0 0 0 0 0 0 0 0 0 0 0 0 0 0 0 0 0 0 0 0 0 0 0
0 0 0 0 0 0 0 0 0 0 0 0 0 0 0 0 0 0 0 0 0 0 0 0 0 0 0 0 0 0 0 0 0 0 0 0 0 0 0 0 0 0 0
0 0 0 0 0 0 0 0 0 0 0 0 0 0 0 0 0 0 0 0 0 0 0 0 0 0 0 0 0 0 0 0 0 0 0 0 0 0 0 0 0 0 0
0 0 0 0 0 0 0 0 0 0 0 0 0 0 0 0 0 0 0 0 0 0 0 0 0 0 0 0 0 0 0 0 0 0 0 0 0 0 0 0 0 0 0
0 0 0 0 0 0 0 0 0 0 0 0 0 0 0 0 0 0 0 0 0 0 0 0 0 0 0 0 0 0 0 0 0 0 0 0 0 0 0 0 0 0 0
0 0 0 0 0 0 0 0 0 0 0 0 0 0 0 0 0 0 0 0 0 0 0 0 0 0 0 0 0 0 0 0 0 0 0 0 0 0 0 0 0 0 0
-63 -86 -76 0 0 -265 -83 0 -14 -76 0 0 0 0 0 0 0 0 0 0 0 0 0 0 0 0 0 0 0 0 0 0 0 0 0 0 0 0 0 0 0 0 0
-230 -292 -315 -80 0 -289 -247 -81 0 0 0 0 0 0 0 0 0 0 0 0 0 0 0 0 0 0 0 0 0 0 0 0 0 0 0 0 0 0 0 0 0 0 0
-226 -256 -298 -64 -90 0 -97 0 0 -18 -52 0 0 0 0 0 0 0 0 0 0 0 0 0 0 0 0 0 0 0 0 0 0 0 0 0 0 0 0 0 0 0 0
-225 -277 -291 -89 -41 -23 -111 -74 0 -54 0 0 0 0 0 0 0 0 0 0 0 0 0 0 0 0 0 0 0 0 0 0 0 0 0 0 0 0 0 0 0 0 0
-208 -216 -245 -234 -242 -159 -162 -88 -81 -82 0 0 0 0 0 0 0 0 0 0 0 0 0 0 0 0 0 0 0 0 0 0 0 0 0 0 0 0 0 0 0 0 0
Wind_Speed
4 6 11 12 12 12 12 14 13 13 14 16 18 17 18 18 18 19 19 20 20 21 24 24 24 24 24 23 23 23 23 24 24 23 21 21 22 24 24 22 18 15 23
8 6 12 13 12 12 12 14 13 14 14 15 17 18 17 18 19 20 20 20 21 21 23 24 23 22 23 23 22 22 23 23 19 17 17 19 22 21 23 21 21 19 23
8 8 9 12 12 11 14 13 12 14 17 15 18 17 17 18 18 19 20 20 19 21 22 24 23 22 22 22 22 21 21 21 20 17 13 8 14 21 22 22 21 22 22
9 7 6 13 13 14 15 13 13 15 14 16 16 16 17 17 17 18 20 21 21 21 22 22 21 21 21 21 21 22 21 21 19 14 8 10 13 22 21 22 22 21 21
7 7 8 14 14 15 15 15 14 17 19 19 17 16 17 19 18 19 19 21 19 19 20 21 20 21 21 21 21 22 21 20 17 11 7 8 11 17 21 20 18 19 20
7 7 12 14 15 16 15 15 16 19 20 22 18 18 17 19 19 19 19 18 17 16 20 20 20 20 21 21 20 21 20 18 13 7 6 12 11 19 20 19 19 18 19
7 7 9 15 17 18 17 15 16 17 18 19 21 20 18 17 18 18 18 17 17 16 19 20 19 19 21 20 20 20 18 16 8 7 7 9 12 19 19 18 18 19 19
9 6 7 13 15 18 20 15 16 17 16 16 19 20 16 17 17 18 18 17 17 18 20 19 20 19 19 20 19 18 16 13 8 7 7 7 16 19 18 18 18 18 18
7 7 6 7 10 14 17 16 17 18 16 15 18 18 15 15 16 17 17 17 19 18 18 17 19 18 19 19 18 17 15 14 7 5 6 5 16 18 17 17 18 17 19
8 8 8 7 7 6 10 19 16 15 15 16 15 15 12 11 14 14 14 16 17 17 15 15 18 18 19 18 17 16 13 12 6 5 4 7 17 17 18 17 18 19 17
8 8 8 8 7 8 9 10 14 16 16 15 13 13 9 5 7 8 11 13 15 15 14 16 18 18 16 15 15 14 11 3 5 4 4 13 15 16 17 17 17 17 17
10 6 7 8 7 9 7 8 7 7 6 5 6 6 5 6 5 6 8 11 13 14 13 16 17 15 10 5 4 8 3 5 4 3 4 14 15 17 17 16 16 16 17
10 7 7 8 7 8 6 5 3 3 4 4 6 5 5 5 4 4 4 4 4 7 4 6 6 4 6 5 5 4 5 5 3 3 6 13 16 15 16 16 16 16 17
9 9 7 7 8 7 5 4 5 5 3 3 4 6 4 3 4 4 3 4 4 3 5 5 4 5 6 6 6 6 5 4 4 3 8 11 13 15 14 15 16 16 16
11 8 7 6 7 6 6 5 5 4 4 4 4 5 4 4 4 4 3 3 4 3 4 4 5 5 5 6 5 5 6 6 6 4 3 12 12 13 14 15 15 15 16
11 10 8 7 7 6 6 6 5 4 5 4 4 4 5 4 4 4 3 4 4 3 4 4 4 5 5 4 5 5 5 5 6 6 4 5 12 11 14 14 14 15 15
10 10 8 9 7 9 7 5 4 4 4 4 4 5 5 4 4 5 4 4 4 3 6 5 5 5 5 4 6 5 5 5 5 6 5 4 6 11 12 13 14 14 15
10 10 7 8 7 7 7 5 4 4 4 4 4 4 4 4 5 4 4 4 4 4 4 4 4 5 4 4 4 4 4 5 5 5 5 4 4 4 8 12 13 14 14
10 8 7 8 7 7 6 5 5 5 4 4 4 4 5 5 6 5 4 4 4 4 4 4 3 3 3 4 4 4 4 3 3 3 5 5 5 5 4 10 12 13 12
8 7 7 7 8 7 5 3 3 3 3 4 4 4 6 4 6 5 4 4 4 4 4 3 3 4 3 4 5 4 3 2 2 2 3 3 4 5 5 5 5 5 11
9 8 7 7 7 7 3 4 3 3 3 2 3 5 6 5 6 5 4 5 4 4 4 5 3 4 3 2 4 3 2 1 1 1 2 2 3 3 4 4 3 3 4
15 13 11 10 7 7 6 3 3 4 2 2 3 5 5 6 6 6 6 5 5 4 5 4 4 3 2 3 4 3 0 3 1 2 1 2 3 3 3 3 4 4 4
15 16 14 13 11 8 8 4 3 4 3 2 2 2 4 6 6 6 6 5 5 4 5 5 5 5 4 3 1 4 2 4 0 0 3 2 4 2 2 3 3 3 3
15 14 14 15 13 8 9 7 5 4 4 3 4 3 4 6 6 6 6 6 6 4 5 5 4 3 4 5 1 2 2 3 3 1 1 1 3 3 4 3 3 2 2
14 12 11 11 12 9 9 10 7 4 3 3 3 5 5 4 6 6 6 7 6 4 5 6 5 5 3 4 3 3 1 1 1 2 3 2 1 2 3 4 3 2 1
10 11 10 10 10 11 11 9 10 9 6 4 3 4 4 3 4 6 6 6 5 6 6 6 6 6 5 4 4 4 4 4 4 3 2 3 3 3 3 3 4 3 2
Wind_Direction
188 167 151 145 142 145 142 137 136 129 125 124 119 115 111 107 107 105 103 101 100 101 98 92 90 89 88 87 84 82 81 78 77 75 73 77 74 75 74 74 74 73 70
136 149 151 144 146 148 144 136 139 128 123 121 114 109 107 107 108 105 104 101 101 97 98 95 93 91 90 86 84 84 82 80 74 71 72 76 79 80 79 76 73 74 72
130 139 143 144 140 146 134 125 127 128 125 117 110 108 106 104 105 106 106 101 99 99 97 95 94 91 90 88 87 83 82 78 74 67 69 83 79 79 78 75 74 76 72
134 131 138 140 140 135 129 130 126 121 109 106 108 105 109 104 107 107 104 99 94 97 95 96 94 92 89 89 88 85 80 76 71 63 61 69 77 79 76 76 73 72 72
112 121 139 140 135 129 127 130 124 113 103 95 85 88 100 99 98 97 98 96 92 93 99 98 96 93 92 89 88 86 82 75 64 50 52 67 79 81 80 76 72 74 75
115 133 136 141 133 126 121 125 123 120 111 105 96 95 94 95 97 99 95 90 89 97 104 102 98 96 92 91 89 88 82 75 66 53 51 82 79 80 79 78 78 74 73
111 111 126 140 131 125 110 103 106 104 107 109 110 92 98 96 101 100 99 94 90 99 108 104 98 94 95 94 93 89 82 73 60 53 48 77 85 83 82 80 77 75 72
116 109 122 131 123 125 123 121 118 115 118 119 110 118 111 111 110 106 101 97 92 101 112 107 100 96 97 96 96 88 81 73 61 62 53 78 87 83 81 80 77 75 71
98 96 87 107 117 123 122 120 132 129 135 121 111 109 114 113 112 109 101 100 98 99 106 106 102 101 101 101 97 90 81 76 65 60 60 68 91 88 83 81 73 73 68
101 93 96 83 87 95 131 144 120 119 108 101 97 92 90 97 97 93 91 96 98 98 103 110 109 107 105 103 99 90 79 71 65 65 73 87 89 90 79 79 74 68 69
109 95 100 96 88 91 93 96 95 96 95 91 87 87 82 84 82 79 90 89 97 94 105 118 112 106 97 93 92 85 73 61 61 52 78 86 92 86 80 75 74 74 72
122 97 105 107 102 101 99 89 88 89 84 83 91 91 87 87 83 85 80 83 86 79 94 118 112 103 87 79 70 70 65 58 50 38 87 89 87 84 83 80 77 74 71
130 118 115 116 102 104 104 97 83 85 88 86 90 90 84 83 73 76 73 61 68 66 76 89 97 75 88 89 77 66 63 56 50 38 73 83 89 90 85 82 77 73 68
135 131 126 122 114 106 109 110 113 108 99 98 96 100 104 94 86 81 83 73 73 69 83 91 96 94 83 80 89 80 68 61 53 39 51 77 90 89 88 84 78 71 67
139 142 137 129 123 124 126 121 117 113 105 112 113 120 117 105 104 104 90 80 80 85 95 95 102 104 99 90 77 92 76 65 62 53 44 54 72 89 86 80 77 72 67
149 153 144 138 133 135 117 130 129 123 121 124 122 130 127 124 125 117 114 101 92 94 98 103 111 112 95 94 90 74 81 68 68 61 51 40 59 76 82 77 72 68 64
157 153 150 141 148 120 131 136 134 148 130 134 140 152 146 132 126 124 117 97 98 99 96 88 81 78 88 79 85 79 78 77 70 72 65 55 45 46 77 80 72 65 58
148 158 148 143 139 131 145 152 145 147 138 148 154 153 165 151 143 128 118 113 116 104 106 95 96 88 90 90 97 80 86 81 84 77 71 64 55 47 51 72 70 62 54
155 152 148 138 148 149 156 151 158 157 156 163 152 161 160 157 152 136 133 128 120 111 104 116 76 99 114 105 105 87 70 76 75 79 84 80 78 71 54 70 66 60 50
155 161 160 161 153 155 148 138 130 144 150 149 171 167 161 155 153 134 131 131 129 123 122 113 118 70 119 128 94 79 61 54 71 103 119 100 94 83 79 68 52 40 51
164 162 169 161 165 156 137 149 152 173 161 166 173 173 169 164 163 154 141 136 139 140 150 133 104 99 69 134 100 35 33 40 96 142 124 122 112 103 99 87 81 59 28
179 179 182 181 167 170 170 177 154 147 160 156 158 181 177 171 167 159 156 161 157 134 138 154 140 126 114 196 122 94 171 321 304 198 150 154 146 133 122 106 93 68 45
186 186 184 183 183 169 181 135 85 80 68 101 117 164 193 178 174 168 167 160 169 155 167 173 160 148 144 219 248 140 102 231 174 227 216 186 166 149 136 118 98 78 62
190 187 185 187 179 170 161 164 155 158 153 188 173 171 184 183 183 180 173 170 177 168 171 182 170 160 131 181 218 177 91 144 177 302 304 211 182 183 183 181 151 137 132
189 184 190 189 181 175 176 175 182 161 169 144 151 173 188 192 189 185 188 177 178 187 184 174 170 183 176 158 169 149 144 101 106 135 228 245 281 218 200 186 177 172 112
178 183 176 178 188 180 178 183 186 178 168 159 166 184 196 191 190 193 187 191 190 181 180 191 190 190 193 185 174 180 170 173 191 165 181 216 208 223 202 192 186 183 179